DECAYED

OBJECT AV, 43801 (Decayed)

Orbit data source: Space-Track

You're viewing an Uncataloged Satellite

Recently launched and/or uncataloged satellites may have evolving metadata. Metadata may include but not limited to: Owner, Maufacturer, Bus, Motor, and Mission.

OBJECT AV, 43801 was a satellite in LEO that was launched on Mon, 03 Dec 2018 UTC via an FALCON 9 launch vehicle from the Air Force Western Test Range (AFWTR). Unknown objects in Earth's orbit typically refer to objects detected orbiting the Earth but have not yet been identified or cataloged. These objects could be anything from previously untracked satellites, spent rocket stages, debris from satellite collisions, or even natural meteoroids temporarily captured by Earth's gravity. This object's orbit decayed before it could be identified.

Not visible in the next 10 days
Identifier
43801, 2018-099AV
Orbit
Decayed
Country
Flag of TBDTBD
Related business
None
Manufacturer
Unknown
Mission
Decayed Civil Technology
Bus & Motor
Unknown
Mass
Unknown
Launch date (UTC)
2018-12-03 (7 years ago)
Launch vehicle
FALCON 9
Launch site
Air Force Western Test Range (AFWTR)
Object type
Unknown
Shape & HBR
Box, 0.1 m
Radar Cross Section
0.035 m², Small (<0.1 m²)

Expand to show TLE details & history
Last TLE update: 8 months ago

TLE from 8 months ago
0 OBJECT AV
1 43801U 18099AV  25043.64122001  .06767571  24241-5  19069-2 0  9997
2 43801  97.3348 119.0287 0009390 287.1501  72.8764 16.27654057340212
Epoch: 2025-02-12T15:23Z
TLE epoch observation values (Epoch: 2025-02-12T15:23:21.408Z)
Latitude
-0.00001°
Longitude
105.26073°
Altitude
200.275 km
Speed
7.787 km/s
True Right ascension
07h 56m 06s
True Declination
0° 00' 00"
Sunlit
Object was in full shadow at epoch
Visualization orbit readout
Latitude
Unknown
Longitude
Unknown
Altitude
Unknown
Speed
Unknown
Apparent Right ascension
Unknown
Apparent Declination
Unknown
Sunlit
N/A
Visualization observer readout
Local Sidereal Time
07:17:43
Azimuth
Unknown
Elevation
Unknown
Doppler factor
Unknown
Orbital elements
Apogee altitude
201.845 km
Perigee altitude
189.5 km
Semi-major axis
6,573.81 km
Eccentricity
0.00094
Inclination
97.3348°
RAAN
119.0287°
Arg. of periapsis
287.1501°
True anomaly
72.97927°
Mean anomaly
72.8764°
Eccentric anomaly
72.92783°
Mean motion
4.07209 °/min
Orbital period
88.41 mins
BSTAR
0.0019069
Loading maneuver chart data...
Computing Atmospheric mass density...
Loading historical data...
Loading historical data...
Loading historical data...
Loading historical data...
Loading historical data...
Loading historical data...
Loading historical data...

Documentation

Showing up to 5 results
|